This demonstration page uses our WeatherBlox Daily Observations layout. Learn more.

Left ArrowRight Arrow

39.51506, -84.39828

Hourly Observations for June 14, 2017

Temp ( °F °C ) Dew Point ( °F °C ) Humidity (%) Winds ( mph kmh ) Pressure ( in mb ) Visibility ( mi km ) Precip ( " mm )
12:15 am 00:15 Partly Cloudy 69 20.8 64 18 84 84 N N/A 30.00 1016 10 16 N/A
12:35 am 00:35 Partly Cloudy 69 20.8 64 18 84 84 N N/A 30.00 1016 10 16 N/A
12:55 am 00:55 Clear 69 20.8 65 18.1 85 85 N N/A 30.00 1016 10 16 N/A
1:15 am 01:15 Clear 69 20.8 65 18.1 85 85 SW 3 6 29.97 1015 10 16 N/A
1:35 am 01:35 Clear 69 20.8 65 18.2 85 85 SW 5 7 29.97 1015 10 16 N/A
1:55 am 01:55 Clear 70 21.1 65 18.6 86 86 SSW 5 7 29.97 1015 10 16 N/A
2:15 am 02:15 Clear 72 22.1 67 19.4 85 85 SW 3 6 29.97 1015 10 16 N/A
2:30 am 02:30 Clear 70 21.1 65 18.5 85 85 N N/A 29.97 1015 10 16 N/A
2:55 am 02:55 Clear 69 20.8 65 18.2 85 85 SW 5 7 29.97 1015 10 16 N/A
3:15 am 03:15 Partly Cloudy 71 21.8 66 19.1 85 85 SSW 6 9 30.00 1016 10 16 N/A
3:35 am 03:35 Partly Cloudy 74 23.5 70 20.9 85 85 SSW 6 9 30.00 1016 10 16 N/A
3:55 am 03:55 Clear 74 23.6 69 20.3 82 82 SSW 6 9 30.00 1016 10 16 N/A
4:15 am 04:15 Partly Cloudy 73 22.5 67 19.5 83 83 SW 3 6 30.00 1016 10 16 N/A
4:35 am 04:35 Clear 72 22.3 67 19.2 83 83 S 3 6 30.00 1016 10 16 N/A
4:55 am 04:55 Mostly Cloudy 72 22.3 66 19 82 82 SE 5 7 29.97 1015 10 16 N/A
5:10 am 05:10 Cloudy 74 23.5 68 20.2 82 82 SSE 3 6 29.97 1015 10 16 N/A
5:35 am 05:35 Cloudy with Rain 74 23.5 69 20.4 83 83 N N/A 30.00 1016 7 11 N/A
5:55 am 05:55 Cloudy 73 22.6 67 19.7 84 84 S 3 6 30.00 1016 10 16 N/A
6:15 am 06:15 Cloudy 73 22.5 67 19.6 84 84 N N/A 30.00 1016 10 16 N/A
6:35 am 06:35 Cloudy 72 22.3 67 19.6 85 85 N N/A 30.00 1016 10 16 N/A
6:55 am 06:55 Cloudy with Light Rain 72 22.3 67 19.6 85 85 SSW 3 6 30.00 1016 10 16 N/A
7:15 am 07:15 Cloudy with Heavy Rain 70 21.3 65 18.5 84 84 SSE 7 11 30.00 1016 3 4 N/A
7:35 am 07:35 Cloudy with Light Rain 69 20.8 65 18.1 85 85 SSE 6 9 30.00 1016 7 11 N/A
7:55 am 07:55 Cloudy with Rain 69 20.8 65 18.1 85 85 N N/A 30.03 1017 4 6 N/A
8:15 am 08:15 Cloudy with Light Rain 69 20.8 65 18.1 85 85 SSE 9 15 30.00 1016 4 6 N/A
8:35 am 08:35 Cloudy 69 20.8 65 18.1 85 85 N N/A 30.03 1017 10 16 N/A
8:55 am 08:55 Cloudy 69 20.8 65 18.1 85 85 NNE 3 6 30.03 1017 10 16 N/A
9:15 am 09:15 Cloudy with Light Rain 69 20.8 65 18.1 85 85 NE 7 11 30.03 1017 5 8 N/A
9:35 am 09:35 Cloudy 71 21.5 66 18.8 85 85 NE 3 6 30.03 1017 10 16 N/A
9:55 am 09:55 Cloudy 72 22.2 67 19.3 84 84 NNE 3 6 30.03 1017 10 16 N/A
10:15 am 10:15 Cloudy 73 22.6 67 19.5 83 83 N N/A 30.03 1017 10 16 N/A
10:35 am 10:35 Cloudy 74 23.6 69 20.3 82 82 SSE 5 7 30.03 1017 10 16 N/A
10:55 am 10:55 Cloudy 74 23.6 67 19.7 79 79 N N/A 30.03 1017 10 16 N/A
11:15 am 11:15 Cloudy 74 23.6 68 20 80 80 ENE 3 6 30.03 1017 10 16 N/A
11:35 am 11:35 Cloudy 74 23.6 68 20 80 80 ENE 5 7 30.03 1017 10 16 N/A
11:55 am 11:55 Cloudy 74 23.6 68 19.9 80 80 E 3 6 30.03 1017 10 16 N/A
12:15 pm 12:15 Cloudy 74 23.6 68 20 80 80 S 5 7 30.03 1017 10 16 N/A
12:35 pm 12:35 Cloudy 74 23.6 67 19.7 79 79 SSE 5 7 30.03 1017 10 16 N/A
12:55 pm 12:55 Cloudy 74 23.6 67 19.6 78 78 S 3 6 30.03 1017 10 16 N/A
1:15 pm 13:15 Cloudy 74 23.6 68 19.8 79 79 NNW 9 15 30.06 1018 10 16 N/A
1:35 pm 13:35 Cloudy with Heavy Rain 69 20.8 64 17.9 84 84 N N/A 30.09 1019 1 2 N/A
1:55 pm 13:55 Cloudy with Heavy Rain 69 20.8 65 18.1 85 85 N N/A 30.09 1019 1 2 N/A
2:15 pm 14:15 Cloudy with Light Rain 69 20.8 65 18.3 86 86 ESE 8 13 30.06 1018 3 4 N/A
2:35 pm 14:35 Cloudy with Rain 69 20.8 65 18.3 86 86 E 5 7 30.03 1017 10 16 N/A
2:55 pm 14:55 Cloudy with Light Rain 69 20.8 65 18.3 86 86 S 5 7 30.03 1017 7 11 N/A
3:15 pm 15:15 Cloudy with Light Rain 69 20.8 65 18.3 86 86 N N/A 30.00 1016 7 11 N/A
3:35 pm 15:35 Partly Cloudy 71 21.6 66 19.1 86 86 NNE 3 6 30.00 1016 10 16 N/A
3:55 pm 15:55 Sunny 72 22.3 67 19.6 85 85 N N/A 30.00 1016 10 16 N/A
4:15 pm 16:15 Sunny 74 23.2 69 20.5 85 85 SW 3 6 30.00 1016 10 16 N/A
4:35 pm 16:35 Partly Cloudy 74 23.6 70 21 85 85 SSW 9 15 30.00 1016 10 16 N/A
4:55 pm 16:55 Partly Cloudy 74 23.6 70 20.9 85 85 SSW 5 7 29.97 1015 10 16 N/A
5:15 pm 17:15 Sunny 74 23.6 69 20.5 83 83 WSW 5 7 29.97 1015 10 16 N/A
5:35 pm 17:35 Sunny 74 23.6 69 20.3 82 82 SW 6 9 29.97 1015 10 16 N/A
5:55 pm 17:55 Sunny 76 24.6 70 21.2 81 81 SW 6 9 29.94 1014 10 16 N/A
6:15 pm 18:15 Sunny 77 25.1 71 21.5 81 81 SSW 6 9 29.94 1014 10 16 N/A
6:35 pm 18:35 Sunny 77 25.1 71 21.5 81 81 WSW 3 6 29.94 1014 10 16 N/A
6:55 pm 18:55 Sunny 77 25.1 70 21.2 79 79 SW 6 9 29.91 1013 10 16 N/A
7:15 pm 19:15 Sunny 77 25.1 70 20.9 78 78 S 5 7 29.91 1013 10 16 N/A
7:35 pm 19:35 Sunny 77 25.1 69 20.7 77 77 SW 3 6 29.91 1013 10 16 N/A
7:55 pm 19:55 Sunny 77 25.1 70 21.3 80 80 WSW 3 6 29.91 1013 10 16 N/A
8:15 pm 20:15 Sunny 76 24.7 70 21.2 81 81 N N/A 29.91 1013 10 16 N/A
8:35 pm 20:35 Sunny 76 24.5 68 20.2 77 77 N N/A 29.94 1014 10 16 N/A
8:55 pm 20:55 Sunny 74 23.6 69 20.7 84 84 N N/A 29.94 1014 10 16 N/A
9:15 pm 21:15 Clear 74 23.6 70 21 85 85 N N/A 29.94 1014 10 16 N/A
9:35 pm 21:35 Clear 74 23.6 70 21 85 85 N N/A 29.94 1014 10 16 N/A
9:55 pm 21:55 Partly Cloudy with Mist and Fog 72 22.4 68 19.8 85 85 WNW 15 24 30.00 1016 4 6 N/A
10:15 pm 22:15 Cloudy with Light Rain 74 23.6 68 19.8 79 79 NW 7 11 30.00 1016 10 16 N/A
10:35 pm 22:35 Cloudy with Light Rain 74 23.6 68 19.8 79 79 N N/A 30.00 1016 10 16 N/A
10:55 pm 22:55 Mostly Cloudy 74 23.6 69 20.5 83 83 N N/A 29.97 1015 10 16 N/A
11:15 pm 23:15 Partly Cloudy 74 23.4 68 20.2 82 82 N N/A 29.97 1015 10 16 N/A
11:35 pm 23:35 Partly Cloudy 69 20.8 65 18.2 85 85 N N/A 29.97 1015 7 11 N/A
11:55 pm 23:55 Mostly Cloudy with Haze 69 20.8 65 18.2 85 85 WSW 5 7 29.97 1015 2 3 N/A

Powered by AerisWeather